Home   Weather   Sarajevo   Past weeks

Flag for Bosnia-Herzegovina Past Weather in Sarajevo, Bosnia-Herzegovina — Yesterday and Last 2 Weeks

Now
36 °F

Partly sunny.


Feels Like: 36 °F
Forecast: 27 / 57 °F
Wind: 1 mph from North

Location: Sarajevo / Butmir

Current Time: Apr 23, 2017 at 7:46:30 am

Latest Report: Apr 23, 2017 at 7:00 am


Visibility: 5 mi

Pressure: 30.01 "Hg (28.11 "Hg at 526m altitude)

Humidity: 100%

Dew Point: 36 °F

Location of SarajevoLocation

Past Weather in Sarajevo — Graph

°F

Sarajevo Temperature Yesterday

Maximum temperature yesterday: 55 °F (at 5:00 pm)
Minimum temperature yesterday: 27 °F (at 2:00 am)
Average temperature yesterday: 40 °F

High & Low Weather Summary for the Past Weeks

 TemperatureHumidityPressure
High72 °F (Apr 13, 4:00 pm)100% (Apr 8, 8:00 am)30.33 "Hg (Apr 8, 8:00 am)
Low27 °F (Apr 22, 2:00 am)23% (Apr 13, 4:00 pm)29.77 "Hg (Apr 13, 4:00 pm)
Average46 °F76%30.04 "Hg
* Reported Apr 8 6:00 am — Apr 23 6:30 am, Sarajevo, Weather by CustomWeather, © 2017

Note: Actual official high and low records may vary slightly from our data, if they occured in-between our weather recording intervals... More about our weather records

Advertising

Sarajevo Weather History for the Previous 24 Hours

Scroll right to see more
 ConditionsComfort  
Time TempWeatherWind HumidityBarometerVisibility
6:30 am
Sun, Apr 23
36 °FPartly sunny.No wind93%30.01 "Hg5 mi
6:00 am36 °FScattered clouds.2 mph93%29.98 "HgN/A
5:30 am36 °FPassing clouds.No wind93%29.98 "HgN/A
5:00 am34 °FPassing clouds.No wind100%30.01 "HgN/A
4:00 am34 °FClear.1 mph100%30.01 "Hg10 mi
3:00 am34 °FClear.1 mph93%30.01 "Hg10 mi
2:00 am34 °FClear.No wind93%30.04 "Hg10 mi
1:00 am34 °FClear.No wind93%30.04 "Hg10 mi
12:00 am36 °FClear.2 mph93%30.04 "Hg10 mi
11:00 pm
Sat, Apr 22
36 °FClear.2 mph87%30.04 "Hg10 mi
10:30 pm37 °FClear.No wind87%30.04 "Hg10 mi
10:00 pm39 °FClear.1 mph81%30.07 "Hg10 mi
9:30 pm39 °FClear.1 mph81%30.04 "Hg10 mi
8:30 pm41 °FClear.2 mph81%30.04 "Hg10 mi
8:00 pm43 °FPassing clouds.5 mph71%30.04 "HgN/A
7:30 pm48 °FPassing clouds.3 mph62%30.04 "HgN/A
7:00 pm50 °FSunny.2 mph54%30.04 "Hg10 mi
6:30 pm52 °FPassing clouds.2 mph50%30.04 "HgN/A
6:00 pm54 °FPassing clouds.3 mph47%30.04 "HgN/A
5:30 pm55 °FScattered clouds.1 mph44%30.04 "HgN/A
5:00 pm55 °FScattered clouds.2 mph44%30.07 "HgN/A
4:30 pm52 °FScattered clouds.2 mph47%30.07 "HgN/A
4:00 pm52 °FScattered clouds.3 mph47%30.07 "HgN/A
3:30 pm52 °FPassing clouds.2 mph47%30.09 "HgN/A
3:00 pm54 °FPassing clouds.2 mph51%30.09 "HgN/A
2:30 pm50 °FPassing clouds.2 mph50%30.12 "HgN/A
2:00 pm50 °FPassing clouds.2 mph47%30.12 "HgN/A
1:30 pm48 °FPassing clouds.1 mph50%30.15 "HgN/A
1:00 pm46 °FPassing clouds.3 mph53%30.15 "HgN/A
12:30 pm45 °FPassing clouds.2 mph53%30.18 "HgN/A
12:00 pm43 °FPassing clouds.2 mph57%30.18 "HgN/A
11:30 am39 °FPassing clouds.1 mph56%30.21 "HgN/A
11:00 am39 °FPartly sunny.3 mph65%30.21 "HgN/A
10:30 am36 °FPartly sunny.1 mph70%30.21 "HgN/A
10:00 am36 °FPartly sunny.2 mph75%30.21 "HgN/A
9:30 am34 °FPartly sunny.2 mph75%30.24 "HgN/A
9:00 am34 °FPartly sunny.No wind75%30.24 "HgN/A
8:30 am32 °FScattered clouds.1 mph75%30.24 "Hg5 mi
8:00 am32 °FScattered clouds.1 mph80%30.24 "Hg5 mi
7:30 am30 °FClear.1 mph86%30.24 "HgN/A
7:00 am28 °FPassing clouds.1 mph86%30.24 "HgN/A
Weather by CustomWeather, © 2017

See weather overviewHow to use our weather pages